, TX

(GMT )
Midland

Weather History for KMAF - June, 2013

Change the Weather History Date:

Wednesday, June 26, 2013

  Actual Average Record
Temperature  
Mean Temperature 93 °F 82 °F  
Max Temperature 108 °F 94 °F 112 °F (1994)
Min Temperature 78 °F 69 °F 59 °F (1958)
Cooling Degree Days 28 17  
Month to date cooling degree days 474 394  
Year to date cooling degree days 962 783  
Since 1 June cooling degree days 474 394  
Growing Degree Days 44 (Base 50)    
Moisture  
Dew Point 59 °F    
Average Humidity 36    
Maximum Humidity 58    
Minimum Humidity 13    
Precipitation  
Precipitation 0.00 in 0.06 in 3.23 in (1938)
Month to date precipitation 0.85 1.57  
Year to date precipitation 2.41 5.83  
Sea Level Pressure  
Sea Level Pressure 29.76 in    
Wind  
Wind Speed 14 mph (South)    
Max Wind Speed 29 mph    
Max Gust Speed 35 mph    
Visibility 10 miles    
Events      
T = Trace of Precipitation, MM = Missing Value Source: NWS Daily Summary

Daily Weather History Graph

Daily Weather History Graph

Search for Another Location

Airport or City:

Trip Planner

Search our weather history database for the weather conditions in past years. The results will help you decide how hot, cold, wet, or windy it might be!

Date:

Astronomy

Jun. 26, 2013 Rise Set
Actual Time 6:44 AM CDT 8:58 PM CDT
Civil Twilight 6:16 AM CDT 9:26 PM CDT
Nautical Twilight 5:42 AM CDT 10:01 PM CDT
Astronomical Twilight 5:04 AM CDT 10:38 PM CDT
Moon 11:39 PM CDT (6/26) 10:25 AM CDT (6/26)
Length of Visible Light 15h 10m
Length of Day
14h 13m
Waning Gibbous, 85% of the Moon is Illuminated
Jun 26
Waning Gibbous
Jun 29
Last Quarter
Jul 8
New
Jul 15
First Quarter
Jul 22
Full

Hourly Weather History & Observations

Time (CDT) Temp. Heat Index Dew Point Humidity Pressure Visibility Wind Dir Wind Speed Gust Speed Precip Events Conditions
12:53 AM 84.0 °F 85.8 °F 64.9 °F 53% 29.75 in 10.0 mi South 20.7 mph 26.5 mph N/A   Clear
1:53 AM 82.0 °F 83.8 °F 64.9 °F 56% 29.76 in 10.0 mi South 17.3 mph - N/A   Clear
2:53 AM 82.0 °F 83.8 °F 64.9 °F 56% 29.75 in 10.0 mi South 12.7 mph - N/A   Clear
3:53 AM 81.0 °F 82.5 °F 64.0 °F 56% 29.75 in 10.0 mi South 13.8 mph - N/A   Clear
4:53 AM 81.0 °F 82.2 °F 63.0 °F 54% 29.74 in 10.0 mi South 13.8 mph - N/A   Clear
5:53 AM 81.0 °F 81.9 °F 62.1 °F 52% 29.75 in 10.0 mi South 15.0 mph - N/A   Clear
6:53 AM 79.0 °F - 63.0 °F 58% 29.77 in 10.0 mi South 16.1 mph - N/A   Clear
7:53 AM 79.0 °F - 63.0 °F 58% 29.79 in 10.0 mi South 15.0 mph - N/A   Clear
8:53 AM 81.0 °F 82.7 °F 64.9 °F 58% 29.80 in 10.0 mi South 15.0 mph - N/A   Clear
9:53 AM 84.9 °F 87.1 °F 66.0 °F 53% 29.80 in 10.0 mi South 15.0 mph - N/A   Clear
10:53 AM 90.0 °F 92.4 °F 66.0 °F 45% 29.79 in 10.0 mi South 13.8 mph 21.9 mph N/A   Clear
11:53 AM 95.0 °F 96.0 °F 63.0 °F 34% 29.79 in 10.0 mi SW 12.7 mph 19.6 mph N/A   Clear
12:53 PM 98.1 °F 97.2 °F 57.9 °F 26% 29.78 in 10.0 mi SW 9.2 mph - N/A   Clear
1:53 PM 100.9 °F 99.1 °F 54.0 °F 21% 29.77 in 10.0 mi West 6.9 mph - N/A   Clear
2:53 PM 102.9 °F - 48.9 °F 16% 29.75 in 10.0 mi Calm Calm - N/A   Clear
3:53 PM 106.0 °F - 48.9 °F 15% 29.73 in 10.0 mi Variable 6.9 mph - N/A   Clear
4:53 PM 106.0 °F - 46.9 °F 14% 29.72 in 10.0 mi Variable 5.8 mph - N/A   Clear
5:53 PM 107.1 °F - 46.9 °F 13% 29.70 in 10.0 mi SSE 9.2 mph - N/A   Clear
6:53 PM 106.0 °F - 46.9 °F 14% 29.69 in 10.0 mi South 11.5 mph 16.1 mph N/A   Clear
7:53 PM 104.0 °F - 51.1 °F 17% 29.70 in 10.0 mi SSE 16.1 mph - N/A   Partly Cloudy
8:53 PM 99.0 °F 99.5 °F 61.0 °F 28% 29.72 in 10.0 mi SSE 23.0 mph 27.6 mph N/A   Clear
9:53 PM 95.0 °F 96.0 °F 63.0 °F 34% 29.75 in 10.0 mi SSE 24.2 mph 33.4 mph N/A   Clear
10:53 PM 91.9 °F 94.1 °F 64.9 °F 41% 29.79 in 10.0 mi South 25.3 mph 31.1 mph N/A   Clear
11:53 PM 88.0 °F 89.6 °F 64.9 °F 46% 29.81 in 10.0 mi South 23.0 mph - N/A   Clear